User: anonymous   Login
Location: Drignac
(45.1667°N, 2.0333°E)
Time: 10:30:50
(UTC+00:00)
Language:

Terra - Orbit

View from above orbital plane
View from above orbital plane
View from above satellite
View from above satellite

Ground track
Ground track

The orbit data is extracted from the following two-line orbital elements,

1 25994U 99068A   21209.90904403  .00000074  00000-0  26480-4 0  9999
2 25994  98.1744 283.5708 0001261  98.2228 320.7976 14.57127443149385
Epoch (UTC): 28 July 2021 21:49:01
Eccentricity: 0.0001261
inclination: 98.1744°
perigee height: 701 km
apogee height: 703 km
right ascension of ascending node: 283.5708°
argument of perigee: 98.2228°
revolutions per day: 14.57127443
mean anomaly at epoch: 320.7976°
orbit number at epoch: 14938

The dashed part of the orbit path shows where the satellite is in the earth's shadow,  

DLR